Volver al catálogo

SL-12 DEB

ActivoMEO
NORAD 20044·DEBRIS·🇷🇺 Russia

Lanzado May 31, 1989 desde Baikonur Cosmodrome

Loading…

Próximos Pases (próximas 24 horas)

TLE

EnvejeciendoSource: Space-Track

Época: Aug 29, 2026, 04:27 UTC

1 20044U 89039F   26241.18542560 -.00000015  00000-0  00000+0 0  9991
2 20044  64.8852 308.0084 0022669 212.7885 190.6375  2.13204897288214

Sigue SL-12 DEB en tiempo real con AllMySat

Download on the App Store